Temp
-10 -10 -10 -9 -9 -9 -9 -9 -10 -10 -10 -10 -10 -10 -10 -10 -10 -10 -10 -9 -9 -9 -9 -9 -9 -8 -9 -9 -8 -8 -8 -8 -8 -8 -8 -9 -9 -10 -10 -11 -11 -11 -11 -12 -13 -14 -15
-10 -10 -10 -9 -9 -9 -9 -10 -10 -10 -10 -10 -10 -10 -10 -10 -10 -10 -10 -10 -9 -9 -9 -9 -9 -9 -9 -9 -8 -8 -8 -8 -8 -8 -9 -9 -9 -10 -10 -11 -11 -11 -12 -12 -14 -15 -16
-10 -10 -10 -9 -9 -9 -10 -10 -10 -10 -10 -11 -11 -11 -10 -10 -10 -10 -10 -10 -10 -9 -9 -9 -9 -9 -9 -9 -9 -9 -8 -8 -8 -9 -9 -9 -9 -10 -11 -11 -12 -12 -13 -14 -15 -16 -18
-10 -10 -10 -9 -9 -10 -10 -10 -10 -10 -11 -11 -11 -11 -11 -10 -10 -10 -10 -10 -10 -9 -9 -9 -9 -9 -9 -9 -8 -8 -8 -8 -8 -8 -9 -9 -10 -11 -11 -12 -12 -12 -14 -15 -16 -17 -20
-10 -10 -9 -9 -9 -10 -10 -10 -10 -11 -11 -11 -11 -11 -10 -11 -10 -10 -10 -10 -10 -10 -9 -9 -9 -9 -9 -9 -9 -9 -9 -8 -8 -9 -9 -9 -10 -11 -12 -12 -12 -13 -14 -16 -17 -18 -21
-10 -10 -9 -9 -10 -10 -10 -10 -10 -11 -11 -11 -11 -11 -11 -11 -11 -10 -10 -10 -10 -10 -9 -9 -9 -9 -9 -9 -9 -9 -9 -8 -9 -9 -9 -10 -11 -11 -12 -12 -13 -13 -15 -16 -18 -19 -22
-10 -10 -9 -10 -10 -10 -10 -10 -10 -11 -11 -11 -11 -11 -11 -11 -11 -10 -10 -10 -10 -10 -10 -10 -10 -10 -10 -9 -9 -9 -9 -9 -9 -10 -10 -10 -11 -12 -12 -13 -13 -14 -16 -17 -18 -20 -23
-10 -10 -10 -10 -10 -10 -10 -10 -11 -11 -11 -11 -11 -11 -11 -11 -11 -10 -10 -10 -10 -10 -10 -10 -10 -10 -10 -10 -10 -9 -9 -10 -10 -10 -10 -10 -11 -12 -13 -13 -14 -15 -16 -17 -18 -21 -23
-10 -10 -11 -10 -10 -10 -10 -10 -11 -11 -11 -12 -11 -11 -11 -11 -11 -10 -10 -10 -10 -10 -10 -10 -10 -10 -10 -10 -10 -9 -10 -10 -10 -10 -11 -11 -12 -13 -13 -13 -14 -15 -17 -17 -19 -22 -24
-11 -11 -11 -11 -10 -10 -10 -10 -10 -11 -11 -11 -11 -11 -11 -11 -10 -10 -10 -10 -10 -10 -10 -10 -10 -10 -10 -9 -10 -9 -10 -10 -10 -10 -11 -11 -12 -13 -13 -14 -14 -15 -17 -18 -19 -22 -24
-11 -11 -11 -11 -10 -10 -10 -10 -10 -10 -11 -11 -11 -11 -11 -11 -11 -10 -11 -11 -11 -10 -11 -11 -10 -10 -10 -10 -10 -10 -10 -10 -11 -11 -11 -12 -13 -13 -14 -14 -15 -16 -17 -18 -19 -22 -24
-11 -11 -11 -11 -11 -11 -10 -10 -10 -10 -11 -11 -11 -11 -11 -11 -11 -11 -11 -11 -11 -11 -11 -11 -11 -10 -10 -11 -11 -11 -11 -11 -11 -11 -11 -12 -13 -13 -14 -15 -15 -15 -16 -18 -19 -22 -24
-11 -11 -11 -11 -11 -11 -11 -11 -10 -10 -11 -11 -11 -11 -11 -11 -11 -11 -11 -11 -11 -11 -11 -11 -11 -11 -11 -11 -11 -10 -11 -11 -11 -11 -11 -12 -13 -14 -14 -14 -15 -16 -16 -18 -20 -22 -24
-11 -11 -11 -11 -11 -11 -11 -11 -11 -11 -10 -10 -11 -11 -11 -11 -11 -11 -11 -11 -11 -11 -11 -11 -11 -11 -11 -10 -11 -11 -11 -11 -11 -11 -12 -12 -13 -15 -15 -15 -16 -16 -17 -19 -21 -22 -23
-11 -11 -11 -12 -12 -12 -11 -11 -11 -11 -11 -11 -11 -11 -11 -11 -11 -11 -11 -11 -11 -12 -11 -11 -11 -11 -11 -11 -11 -11 -11 -12 -12 -12 -12 -13 -14 -15 -15 -16 -16 -17 -18 -19 -19 -21 -22
-12 -12 -12 -12 -12 -12 -12 -11 -11 -11 -11 -11 -11 -11 -11 -11 -11 -11 -12 -11 -12 -12 -12 -12 -11 -11 -11 -12 -12 -12 -12 -12 -12 -12 -12 -13 -14 -15 -15 -16 -16 -17 -18 -19 -20 -23 -23
-12 -12 -12 -12 -12 -12 -12 -12 -12 -11 -11 -11 -11 -11 -12 -12 -12 -12 -12 -11 -12 -12 -12 -12 -12 -12 -12 -12 -12 -12 -12 -12 -12 -13 -13 -13 -14 -15 -16 -16 -17 -18 -19 -19 -20 -22 -25
-12 -12 -12 -12 -12 -12 -12 -12 -12 -12 -12 -12 -12 -12 -12 -12 -12 -12 -12 -12 -12 -12 -12 -12 -12 -12 -12 -12 -12 -12 -13 -13 -13 -13 -13 -14 -14 -15 -15 -16 -17 -18 -19 -19 -20 -22 -24
-12 -12 -12 -12 -12 -12 -12 -12 -12 -12 -12 -12 -12 -12 -12 -13 -12 -12 -12 -12 -12 -12 -13 -13 -13 -13 -13 -13 -12 -13 -13 -13 -13 -13 -13 -14 -15 -15 -16 -16 -17 -18 -18 -19 -20 -21 -23
-12 -12 -12 -12 -12 -12 -12 -12 -13 -13 -13 -13 -13 -13 -13 -13 -13 -13 -12 -12 -13 -13 -13 -13 -13 -13 -13 -13 -13 -13 -13 -13 -13 -13 -13 -14 -15 -16 -16 -17 -17 -18 -19 -20 -20 -21 -22
-12 -12 -12 -12 -13 -13 -13 -13 -13 -13 -13 -13 -13 -13 -13 -13 -13 -13 -13 -13 -13 -13 -14 -14 -14 -13 -13 -13 -13 -13 -14 -14 -14 -13 -13 -14 -14 -15 -16 -17 -17 -18 -19 -20 -20 -20 -22
-12 -12 -12 -12 -13 -13 -13 -13 -13 -13 -13 -13 -13 -13 -13 -13 -13 -13 -13 -13 -14 -14 -14 -14 -14 -14 -14 -13 -13 -13 -13 -14 -14 -14 -14 -14 -14 -15 -15 -15 -16 -17 -18 -19 -20 -20 -21
-12 -12 -12 -12 -12 -13 -13 -13 -13 -13 -13 -13 -13 -13 -13 -13 -13 -13 -13 -13 -14 -14 -14 -14 -14 -14 -14 -14 -14 -14 -14 -14 -14 -14 -14 -14 -14 -15 -15 -16 -17 -17 -18 -18 -20 -20 -20
-12 -13 -13 -13 -12 -13 -13 -13 -13 -13 -13 -13 -13 -13 -14 -13 -13 -13 -13 -14 -14 -14 -14 -14 -15 -14 -14 -14 -14 -14 -14 -14 -14 -14 -14 -14 -14 -15 -15 -16 -17 -17 -18 -18 -19 -19 -20
-13 -13 -13 -13 -13 -12 -13 -13 -13 -13 -14 -14 -14 -14 -14 -14 -14 -14 -14 -14 -14 -14 -14 -14 -14 -14 -14 -14 -14 -14 -14 -14 -14 -14 -14 -14 -15 -15 -16 -16 -16 -17 -17 -18 -18 -19 -20
-13 -13 -13 -13 -13 -13 -13 -13 -13 -13 -14 -14 -14 -14 -14 -14 -14 -14 -14 -14 -14 -14 -14 -14 -14 -14 -14 -14 -14 -14 -14 -14 -14 -14 -14 -15 -15 -16 -16 -16 -17 -17 -18 -18 -18 -19 -20
-13 -13 -13 -13 -13 -13 -13 -13 -13 -13 -14 -14 -14 -14 -14 -14 -14 -14 -14 -14 -14 -14 -14 -14 -14 -14 -14 -14 -14 -14 -14 -15 -15 -15 -14 -15 -15 -16 -16 -16 -16 -17 -18 -18 -19 -19 -20
-12 -12 -12 -11 -12 -12 -13 -13 -13 -13 -13 -14 -14 -14 -14 -14 -14 -14 -14 -14 -14 -14 -14 -14 -14 -14 -14 -14 -14 -14 -14 -15 -15 -15 -15 -15 -15 -16 -16 -16 -17 -17 -18 -18 -19 -19 -19
-12 -12 -12 -11 -12 -12 -12 -13 -13 -13 -13 -13 -14 -14 -14 -14 -14 -14 -14 -14 -14 -14 -14 -14 -14 -14 -15 -15 -15 -15 -15 -15 -16 -15 -15 -15 -16 -16 -17 -17 -17 -18 -18 -18 -18 -19 -18
Height
5858 5859 5859 5859 5860 5860 5859 5858 5858 5857 5857 5857 5857 5857 5856 5855 5854 5854 5852 5851 5850 5848 5846 5843 5840 5836 5834 5831 5827 5823 5818 5813 5808 5800 5793 5784 5775 5767 5757 5748 5738 5727 5713 5700 5685 5671 5655
5858 5859 5859 5859 5859 5859 5858 5858 5857 5856 5856 5855 5856 5856 5855 5854 5853 5852 5851 5850 5849 5847 5844 5841 5838 5835 5832 5829 5824 5819 5815 5809 5801 5794 5786 5776 5768 5758 5748 5738 5726 5714 5700 5685 5669 5653 5636
5858 5859 5859 5859 5858 5858 5858 5857 5856 5855 5855 5854 5854 5854 5853 5853 5852 5851 5850 5849 5848 5846 5843 5840 5836 5832 5828 5825 5821 5817 5811 5803 5796 5788 5779 5769 5759 5749 5739 5728 5716 5703 5688 5669 5653 5634 5618
5858 5859 5859 5858 5857 5857 5856 5855 5854 5854 5853 5853 5853 5853 5853 5852 5851 5850 5849 5848 5846 5844 5841 5838 5834 5829 5825 5821 5817 5811 5804 5798 5790 5782 5774 5764 5751 5741 5730 5720 5707 5692 5673 5655 5636 5620 5606
5857 5858 5858 5857 5856 5855 5855 5854 5853 5852 5852 5852 5852 5852 5852 5851 5850 5849 5848 5847 5845 5843 5839 5835 5832 5827 5823 5818 5813 5806 5800 5793 5785 5777 5769 5755 5745 5733 5720 5708 5692 5675 5662 5646 5628 5611 5598
5857 5857 5856 5855 5854 5854 5854 5853 5852 5852 5852 5852 5851 5851 5851 5850 5849 5848 5847 5846 5843 5840 5836 5833 5828 5826 5820 5814 5809 5803 5796 5788 5779 5772 5762 5750 5738 5725 5713 5700 5682 5667 5654 5639 5615 5600 5588
5856 5856 5855 5854 5853 5853 5853 5853 5852 5851 5851 5851 5850 5850 5849 5849 5848 5847 5846 5844 5843 5839 5834 5830 5825 5820 5815 5811 5806 5799 5791 5783 5775 5766 5755 5743 5731 5716 5701 5689 5673 5659 5643 5625 5607 5590 5579
5855 5855 5854 5854 5853 5853 5853 5853 5852 5851 5850 5849 5848 5848 5848 5848 5847 5846 5844 5841 5838 5835 5831 5827 5823 5819 5815 5808 5803 5795 5789 5781 5770 5761 5749 5735 5721 5708 5696 5684 5666 5649 5632 5615 5596 5581 5570
5855 5855 5854 5854 5854 5853 5853 5852 5851 5850 5849 5848 5847 5846 5846 5847 5846 5845 5842 5839 5835 5832 5829 5824 5820 5816 5811 5807 5799 5791 5783 5775 5765 5753 5742 5728 5716 5702 5689 5676 5661 5641 5624 5607 5589 5576 5566
5854 5854 5854 5854 5853 5853 5852 5852 5851 5850 5848 5847 5847 5846 5846 5846 5845 5842 5840 5837 5833 5830 5826 5824 5818 5813 5807 5799 5795 5786 5776 5769 5758 5747 5737 5724 5711 5697 5683 5667 5652 5635 5615 5599 5582 5566 5559
5854 5854 5854 5853 5853 5852 5852 5851 5850 5849 5848 5847 5846 5846 5845 5843 5842 5840 5838 5834 5830 5827 5824 5821 5815 5809 5802 5796 5790 5782 5773 5763 5754 5743 5733 5721 5706 5690 5677 5662 5646 5632 5613 5597 5578 5562 5554
5853 5853 5853 5852 5852 5852 5851 5850 5848 5847 5847 5846 5845 5845 5844 5842 5840 5838 5835 5831 5828 5826 5821 5817 5811 5805 5800 5793 5786 5778 5769 5759 5750 5741 5729 5715 5700 5687 5672 5656 5643 5627 5611 5597 5577 5560 5551
5851 5851 5852 5852 5851 5851 5850 5849 5848 5846 5845 5844 5844 5843 5842 5840 5838 5835 5832 5829 5826 5821 5818 5814 5807 5802 5796 5790 5782 5774 5765 5755 5745 5735 5723 5710 5695 5683 5669 5654 5638 5619 5605 5589 5569 5550 5545
5848 5849 5850 5850 5850 5849 5848 5848 5847 5845 5844 5843 5842 5841 5839 5837 5834 5832 5829 5826 5822 5818 5814 5810 5805 5799 5792 5784 5777 5768 5758 5749 5741 5729 5716 5703 5686 5676 5661 5646 5630 5612 5593 5578 5562 5549 5544
5846 5847 5847 5848 5847 5847 5846 5846 5845 5844 5842 5842 5840 5838 5836 5834 5831 5828 5826 5822 5818 5814 5810 5806 5801 5796 5789 5781 5773 5763 5754 5745 5736 5725 5712 5697 5684 5672 5658 5641 5625 5609 5594 5581 5567 5551 5541
5842 5843 5844 5844 5844 5844 5844 5843 5842 5841 5840 5839 5837 5835 5833 5831 5828 5825 5822 5819 5814 5810 5806 5801 5796 5791 5784 5777 5768 5758 5749 5742 5733 5721 5707 5694 5682 5668 5655 5641 5628 5609 5594 5575 5557 5541 5535
5838 5840 5841 5841 5841 5841 5841 5840 5839 5838 5836 5835 5833 5832 5829 5827 5825 5822 5818 5815 5810 5807 5803 5798 5793 5787 5780 5773 5764 5756 5748 5739 5727 5717 5705 5690 5679 5666 5650 5636 5619 5601 5585 5570 5559 5547 5532
5833 5835 5836 5836 5836 5836 5837 5836 5836 5834 5833 5832 5830 5828 5826 5823 5822 5818 5815 5811 5808 5803 5799 5794 5788 5782 5776 5768 5761 5752 5743 5733 5723 5712 5700 5688 5675 5662 5650 5635 5619 5603 5586 5571 5555 5544 5529
5828 5829 5831 5831 5832 5832 5832 5832 5831 5830 5829 5827 5826 5824 5822 5820 5818 5814 5811 5807 5803 5799 5794 5789 5784 5778 5771 5764 5755 5747 5739 5731 5720 5710 5697 5685 5673 5659 5645 5633 5620 5603 5587 5571 5557 5543 5533
5822 5823 5825 5826 5827 5827 5827 5827 5827 5826 5824 5824 5822 5820 5818 5816 5813 5810 5807 5803 5799 5794 5790 5784 5779 5773 5767 5760 5753 5744 5735 5727 5718 5707 5696 5684 5672 5657 5642 5628 5613 5597 5582 5566 5551 5540 5526
5816 5817 5818 5820 5820 5822 5822 5822 5822 5821 5820 5819 5818 5816 5814 5811 5809 5806 5802 5799 5794 5790 5785 5779 5774 5768 5761 5755 5748 5740 5732 5723 5715 5704 5694 5682 5672 5659 5643 5630 5616 5602 5588 5572 5554 5540 5526
5808 5810 5811 5812 5814 5815 5816 5816 5816 5816 5814 5814 5812 5811 5809 5806 5804 5801 5798 5794 5789 5785 5780 5775 5769 5763 5757 5750 5744 5736 5729 5720 5712 5703 5692 5681 5669 5659 5647 5634 5620 5604 5590 5575 5556 5539 5525
5800 5802 5804 5805 5806 5808 5808 5809 5809 5809 5809 5807 5806 5805 5804 5801 5798 5796 5792 5789 5785 5779 5775 5769 5764 5759 5753 5747 5739 5733 5725 5717 5708 5699 5689 5677 5666 5655 5644 5630 5618 5605 5589 5576 5561 5542 5525
5792 5794 5796 5797 5799 5800 5801 5801 5801 5802 5802 5801 5800 5799 5798 5796 5793 5790 5787 5784 5779 5774 5769 5764 5758 5753 5749 5742 5736 5730 5722 5715 5706 5696 5686 5674 5662 5652 5642 5629 5616 5604 5590 5578 5565 5544 5527
5783 5785 5787 5788 5790 5791 5793 5793 5794 5794 5794 5794 5793 5792 5790 5789 5787 5784 5781 5777 5773 5768 5763 5758 5754 5749 5744 5739 5732 5726 5719 5712 5702 5693 5683 5671 5660 5648 5637 5627 5618 5604 5589 5575 5561 5548 5529
5771 5774 5777 5779 5780 5782 5783 5784 5785 5785 5785 5784 5784 5784 5783 5782 5780 5777 5774 5771 5767 5762 5759 5753 5749 5745 5740 5734 5728 5721 5713 5705 5696 5689 5680 5670 5658 5647 5635 5623 5611 5600 5587 5574 5560 5548 5528
5760 5762 5764 5767 5769 5771 5772 5773 5774 5775 5774 5775 5775 5774 5774 5773 5772 5770 5768 5764 5760 5756 5752 5749 5744 5740 5735 5730 5725 5717 5710 5702 5693 5685 5677 5668 5657 5645 5634 5623 5615 5602 5589 5575 5562 5550 5535
5749 5751 5753 5755 5758 5759 5761 5763 5763 5764 5764 5765 5765 5765 5765 5764 5763 5762 5760 5758 5753 5750 5746 5743 5739 5734 5730 5725 5719 5711 5704 5698 5691 5684 5674 5664 5653 5643 5632 5622 5612 5601 5589 5576 5567 5551 5537
5736 5741 5743 5744 5746 5747 5750 5752 5753 5754 5754 5754 5755 5754 5754 5754 5755 5753 5752 5750 5747 5743 5740 5736 5732 5727 5723 5718 5714 5708 5701 5694 5688 5680 5671 5662 5652 5640 5629 5619 5611 5600 5589 5578 5567 5555 5542
Wind_Speed
8 6 4 2 1 2 3 3 3 4 5 6 7 7 7 6 6 8 6 6 9 11 14 18 19 19 20 22 25 26 29 32 35 42 46 51 55 58 60 63 66 69 73 77 80 82 76
7 5 2 2 5 5 3 2 3 3 4 6 6 6 7 6 7 7 6 8 10 13 15 19 19 19 22 24 24 27 31 33 40 45 50 54 58 62 64 67 69 73 76 80 82 78 74
3 2 2 6 7 5 4 4 5 5 6 6 6 6 6 6 7 5 5 8 10 13 16 19 20 23 26 26 26 28 31 38 43 49 54 57 62 64 66 69 71 74 78 82 79 74 64
2 3 5 8 8 6 6 6 6 6 6 6 5 5 5 7 6 4 6 9 12 15 18 19 21 24 24 24 27 31 36 41 46 51 54 60 63 64 67 69 72 75 79 80 79 70 55
5 5 7 8 8 6 6 5 5 4 3 3 3 4 5 6 6 5 7 10 15 17 19 19 21 24 25 27 31 33 38 43 48 53 56 61 64 66 69 72 75 79 79 76 74 67 50
7 7 8 8 6 6 5 3 3 3 4 4 5 5 6 6 6 6 8 13 16 18 20 21 23 25 26 30 33 36 40 45 51 54 58 62 65 67 69 73 76 79 80 74 71 62 42
5 6 7 6 3 2 1 2 3 5 5 7 8 7 8 7 5 7 11 15 17 19 20 23 25 27 29 32 35 38 43 48 52 55 59 63 64 67 70 73 78 80 79 78 68 55 40
3 4 4 2 0 1 1 3 5 7 8 9 10 7 6 3 5 9 14 17 19 20 22 24 25 25 28 31 35 41 44 49 51 55 60 66 66 67 70 72 77 81 78 76 72 52 36
1 1 1 1 1 2 3 5 7 7 7 6 2 1 1 3 7 11 14 18 19 20 23 23 26 27 30 33 38 43 46 49 51 57 61 65 65 66 70 73 77 81 78 78 72 51 30
2 2 1 1 1 2 4 6 8 6 5 1 2 1 3 5 9 11 15 18 20 22 25 24 27 28 34 38 41 47 49 51 52 58 61 63 64 66 70 75 79 81 80 78 69 49 32
2 2 3 2 3 4 5 7 9 7 5 3 2 4 5 8 11 13 17 20 22 24 26 26 27 32 37 41 44 48 50 51 52 57 59 61 63 67 72 76 80 81 83 79 69 50 29
6 5 5 5 5 5 6 8 10 9 9 9 7 7 10 12 13 16 19 21 22 24 24 26 30 34 38 42 45 47 49 50 53 56 58 62 63 67 72 76 80 82 84 80 71 50 26
11 8 8 7 7 6 7 9 11 11 11 12 11 11 13 15 17 19 21 23 23 25 27 28 30 34 40 43 47 50 51 48 54 58 60 62 64 66 71 75 80 83 85 83 74 53 28
15 13 11 10 10 9 9 10 12 12 12 12 13 14 16 18 21 23 24 25 25 26 27 29 31 36 42 46 49 53 50 50 53 57 61 62 64 67 73 77 81 84 86 83 73 58 28
18 17 15 14 13 13 11 12 13 13 14 15 17 19 19 21 23 24 24 25 27 28 29 30 33 38 42 46 50 52 46 49 53 56 60 62 63 67 72 76 81 83 84 82 76 63 32
23 22 19 18 17 16 15 14 15 16 17 18 19 21 22 22 23 25 25 26 28 28 30 33 35 39 43 47 52 47 46 49 52 56 60 61 62 66 70 75 79 81 84 84 79 66 42
22 24 24 22 21 20 18 17 17 17 18 19 19 20 23 23 23 23 24 27 26 27 31 34 37 40 43 47 52 44 45 49 53 56 58 62 61 65 70 74 79 82 83 84 79 68 46
26 26 25 25 24 23 22 20 19 20 19 20 19 19 20 20 20 22 25 26 26 28 33 36 37 40 43 48 50 44 46 48 52 55 58 60 62 64 68 72 76 79 80 83 81 71 45
30 30 28 27 27 26 25 24 22 21 21 20 20 21 22 22 21 23 26 27 27 29 33 36 38 41 45 49 47 44 46 47 52 55 58 59 60 64 68 71 73 77 79 81 81 75 46
32 30 30 30 28 27 27 27 25 24 24 22 22 22 23 24 24 26 27 28 29 32 34 37 41 42 44 45 41 42 45 47 52 55 57 59 59 62 67 70 74 76 78 81 82 77 62
35 33 32 30 30 29 28 30 29 27 27 26 25 25 25 27 27 27 27 30 31 34 37 41 40 40 43 43 41 42 44 46 50 53 56 59 59 59 63 67 72 74 75 76 80 78 66
36 37 35 33 32 31 30 31 32 31 31 30 28 28 28 29 29 29 30 32 34 35 40 40 38 40 42 41 40 43 44 47 48 51 55 58 58 58 58 63 69 73 74 76 77 78 71
40 40 38 36 35 32 33 34 34 34 34 33 31 30 30 32 32 32 34 36 36 37 41 41 39 38 34 39 40 41 43 44 47 50 54 58 59 58 59 63 68 72 75 75 75 77 75
44 43 40 39 37 36 35 36 37 36 36 35 34 34 34 33 34 35 36 37 39 40 42 40 35 33 32 38 39 38 40 43 45 48 54 58 59 58 57 61 67 70 74 74 74 77 74
46 45 45 43 41 39 39 40 40 38 39 39 38 38 36 36 36 37 36 38 39 40 41 36 33 31 33 37 40 42 43 45 46 48 54 58 58 57 57 58 63 68 71 75 76 74 73
51 51 49 48 46 46 45 46 45 43 43 46 41 41 40 38 38 37 37 38 39 39 34 33 33 33 33 35 39 42 44 44 47 48 54 56 58 56 56 57 63 68 69 73 75 75 74
53 48 48 51 54 52 50 51 50 51 48 49 47 44 42 42 40 39 39 38 38 37 34 33 33 33 34 35 38 42 41 43 45 48 53 53 57 55 54 55 58 65 67 69 72 76 73
37 42 39 40 48 51 52 48 46 47 47 47 48 49 46 45 44 41 39 39 36 36 34 35 34 32 34 35 37 39 42 43 43 47 52 54 57 55 52 52 57 63 65 67 68 70 73
39 42 41 42 46 48 50 49 46 47 47 47 47 47 49 47 47 44 40 38 35 35 33 31 32 33 36 36 35 37 40 41 43 47 52 54 55 56 51 50 55 60 63 65 67 68 70
Wind_Direction
136 134 116 93 12 322 336 324 283 256 246 246 248 257 271 285 287 306 307 305 324 336 345 350 352 347 342 343 339 339 337 333 332 336 332 333 332 332 330 331 331 330 329 326 327 327 329
135 128 105 338 320 318 303 308 295 272 258 252 253 263 278 283 295 303 299 318 335 341 347 352 349 344 339 337 338 337 333 330 338 335 337 334 334 332 332 333 333 332 330 330 332 336 329
154 172 310 329 324 304 295 298 289 277 267 265 269 273 277 291 300 291 307 336 340 340 350 348 345 339 340 339 338 334 331 338 338 337 338 335 334 333 333 335 334 333 334 335 338 337 323
232 265 310 314 308 294 302 298 290 287 269 265 269 280 296 302 302 296 331 342 339 342 348 344 341 341 339 338 336 336 339 340 338 336 337 337 334 333 335 334 334 335 339 342 340 335 321
264 282 296 299 295 290 304 297 293 285 264 255 261 283 295 303 302 316 336 338 337 340 343 342 342 339 339 338 339 339 340 338 336 340 341 337 334 336 334 336 336 340 343 345 341 334 319
268 284 292 298 299 292 300 291 275 279 272 263 266 278 294 308 311 327 334 339 336 339 341 341 335 336 339 338 340 340 340 337 339 340 339 336 336 336 337 339 340 342 342 348 341 334 316
262 282 291 298 304 279 238 255 276 278 282 284 284 286 296 305 319 325 335 334 338 341 342 340 336 339 340 338 341 340 339 339 338 341 338 337 337 338 339 341 341 343 346 349 345 332 312
249 284 289 304 141 187 238 296 299 298 298 296 289 277 279 296 315 325 329 335 341 340 342 339 338 340 342 344 343 341 340 340 340 340 339 338 340 339 339 341 343 347 349 352 348 333 309
205 305 330 327 281 274 294 306 315 311 309 315 325 146 190 309 327 328 332 338 339 340 340 338 339 340 343 344 343 342 342 341 341 340 343 339 339 339 340 342 345 348 351 354 348 340 310
177 36 354 320 320 279 289 312 323 312 323 323 131 99 334 337 332 335 338 337 337 338 340 340 340 344 344 344 344 344 342 343 342 340 344 339 340 339 342 344 348 350 353 355 349 340 318
225 341 358 321 306 301 288 303 320 300 287 257 253 315 322 325 329 329 335 339 337 338 339 339 345 343 344 343 344 344 344 342 343 343 343 341 341 341 342 345 350 351 353 356 353 343 326
248 289 315 322 313 297 299 299 310 298 284 263 269 300 317 323 325 327 332 335 335 335 336 337 338 340 342 342 342 344 344 343 342 343 343 342 340 342 344 346 350 350 353 357 356 349 337
245 267 291 309 310 307 299 301 303 304 285 277 274 295 309 315 320 324 327 330 332 333 337 337 337 338 338 339 340 341 341 341 341 343 344 342 341 344 345 346 350 353 353 358 358 354 348
244 261 276 290 303 306 305 298 296 302 293 282 285 296 307 315 318 321 324 327 329 332 334 335 336 337 336 335 338 341 341 343 344 344 344 345 342 345 346 348 351 354 356 360 357 354 346
248 257 268 281 291 299 304 302 295 294 290 286 290 296 301 309 313 317 320 324 326 329 331 331 333 333 337 339 340 341 344 344 346 345 345 344 344 344 347 351 353 356 357 358 359 356 353
252 257 264 274 283 290 297 300 299 296 292 291 291 294 299 303 307 311 316 320 321 324 327 328 330 334 336 339 341 344 345 345 346 346 347 346 344 344 347 352 353 356 357 357 358 359 353
258 262 265 268 274 282 289 295 302 301 298 298 297 295 298 303 306 309 316 320 320 320 324 327 330 332 334 337 341 343 344 345 346 347 347 346 345 345 346 353 357 357 359 357 357 360 349
256 259 262 264 267 273 281 289 296 302 304 302 302 302 303 307 313 314 320 323 322 322 323 326 328 329 331 335 340 340 343 344 346 347 347 346 345 344 346 352 356 358 359 356 357 359 351
254 256 260 263 266 268 273 280 288 295 298 300 301 301 301 305 310 313 318 321 323 322 323 324 326 327 331 335 338 340 339 343 345 347 347 347 346 343 347 350 355 357 359 357 357 356 355
256 259 260 259 263 265 268 273 280 287 293 294 298 304 308 311 313 313 316 319 322 321 321 323 325 326 329 336 338 340 339 342 344 347 347 347 347 347 348 350 355 358 1 359 356 357 356
254 258 260 260 260 262 267 270 275 281 289 293 296 300 307 312 314 317 320 319 323 322 319 322 325 327 332 335 337 338 341 341 344 345 347 347 347 348 346 348 352 355 1 360 356 356 357
251 256 258 260 261 263 263 265 272 279 285 288 291 294 301 305 311 314 314 319 320 323 325 324 324 330 333 336 337 340 342 342 344 346 347 347 347 347 345 346 349 354 359 360 356 357 359
248 254 256 259 261 265 265 264 268 275 280 285 286 290 294 301 305 310 313 317 319 319 322 324 324 329 332 338 342 343 344 344 344 346 348 347 346 345 346 347 351 353 358 358 359 358 358
252 253 254 257 259 261 266 264 264 270 276 279 283 285 290 296 299 305 309 315 318 318 322 325 329 330 331 337 341 345 344 343 346 347 348 347 345 345 348 347 352 354 355 357 0 0 0
248 251 254 254 256 260 265 271 267 266 271 273 279 281 286 290 295 300 305 311 315 315 318 320 325 327 330 335 337 343 346 345 347 348 350 348 345 344 346 348 348 353 354 356 357 2 1
247 249 253 255 256 260 262 266 271 266 267 270 274 278 282 285 291 296 304 307 310 312 312 314 317 323 327 332 335 341 344 346 347 348 349 347 345 344 344 347 350 350 355 356 355 1 3
247 251 252 255 257 259 263 264 266 274 265 269 270 274 277 282 288 292 298 305 306 307 305 310 312 320 325 326 331 336 341 345 347 345 346 346 344 344 343 345 347 350 354 355 358 358 1
254 250 255 260 257 258 260 263 265 263 273 264 270 270 275 278 284 289 294 298 301 304 298 303 306 313 320 324 331 337 338 345 344 345 344 345 344 343 343 343 347 349 352 356 357 358 360
253 247 256 261 255 256 258 260 263 265 265 265 267 272 270 277 282 284 290 292 296 299 297 300 305 312 315 321 329 332 333 338 341 344 343 345 342 342 342 343 345 347 351 354 356 358 0